sat.trackr.live / text

‹ back to catalog

KUIPER-00282

NORAD 69267 · 2026-118A

PAYLOAD ACTIVE UNKNOWN

§ Identity

Operator
Country
US
Launch date
2026-05-29
Launch site
AFETR
Launch vehicle
Mass (kg)
RCS (m²)

External: N2YO · Heavens-Above · Gunter

§ Orbital elements

Epoch: 2026-09-19T22:00:11.242656Z

Period
97.30 min
Inclination
51.8996°
Eccentricity
0.0000238
Mean motion
14.79928365 rev/d
Perigee alt
629.4 km
Apogee alt
629.7 km
Semi-major
7,007.7 km
B*
7.9811e-5
RAAN
341.7450°
Arg perigee
216.0620°
Mean anomaly
144.0326°
Rev number
1,818

§ Raw data

KUIPER-002821 69267U 26118A   26262.91679679  .00000387  00000+0  79811-4 0  99972 69267  51.8996 341.7450 0000238 216.0620 144.0326 14.79928365 18186

JSON: /api/v1/satellites/69267 · /tle

For live sub-satellite position, see the globe view (requires WebGL).

§ Visibility from observer

Set your observer location to see the next 7 days of passes ≥ 10°. The values pass through the URL so the page stays shareable.

No JS? Fill the form by hand. The geolocation button needs JavaScript.